Location: Unspecified
(30.1764°N, 0.0000°E)
Time: 00:46:30
(UTC+00:00)

Tiros 1 despin weight - Visible Passes

Search period start: 04 April 2026 00:00
Search period end: 14 April 2026 00:00
Orbit: 555 x 593 km, 48.2° (Epoch: 29 March)

Date Brightness Start Highest point End Pass type
(mag) Time Alt. Az. Time Alt. Az. Time Alt. Az.
4 Apr ? 03:52:23 66° N 03:52:47 71° NE 03:57:08 10° SE visible
4 Apr ? 19:22:55 10° SSW 19:27:01 45° SE 19:29:28 22° ENE visible
4 Apr ? 21:04:03 10° W 21:05:42 19° WNW 21:05:42 19° WNW visible
5 Apr ? 03:55:54 48° SSE 03:55:54 48° SSE 03:59:09 10° SE visible
5 Apr ? 19:24:43 10° SW 19:29:00 79° SE 19:32:57 12° NE visible
5 Apr ? 21:06:55 10° WNW 21:09:10 18° NW 21:09:10 18° NW visible
6 Apr ? 03:59:38 18° SSE 03:59:38 18° SSE 04:00:52 10° SSE visible
6 Apr ? 19:26:48 10° WSW 19:31:03 61° NW 19:35:22 10° NE visible
6 Apr ? 21:10:04 10° NW 21:12:18 14° NNW 21:12:19 14° NNW visible
7 Apr ? 19:29:09 10° WSW 19:33:09 38° NW 19:37:14 10° NE visible
7 Apr ? 21:13:50 10° NNW 21:14:42 10° NNW 21:15:09 10° NNW visible
8 Apr ? 19:31:44 10° W 19:35:20 25° NNW 19:38:59 10° NNE visible
9 Apr ? 19:34:34 10° WNW 19:37:34 18° NNW 19:40:36 10° NNE visible
10 Apr ? 19:37:43 10° NW 19:39:53 13° NNW 19:42:03 10° N visible
11 Apr ? 19:41:36 10° NNW 19:42:14 10° NNW 19:42:53 10° N visible
